SVA1649 OEAB-OEJN

Flight info

Callsign SVA1649
Flight time 0h 48m
Altitude 24000
Route ABH B544 BOSUT
Aircraft A20N/M-SDE2E3FGHIJ1RWXY/LB1

Departure

Time 2026-05-06 11:28
Airport Abha International Airport (OEAB)

Arrival

Time 2026-05-06 12:17
Airport King Abdulaziz International Airport (OEJN)
Time Latitude Longitude Altitude Speed Heading
2026-05-06 10:58 18.23499 42.65867 6884 ft 0 kts 219°
2026-05-06 11:18 18.23503 42.65870 6884 ft 3 kts 220°
2026-05-06 11:18 18.23522 42.65889 6884 ft 4 kts 236°
2026-05-06 11:18 18.23534 42.65914 6884 ft 4 kts 253°
2026-05-06 11:19 18.23540 42.65942 6884 ft 4 kts 252°
2026-05-06 11:19 18.23542 42.65951 6884 ft 4 kts 23°
2026-05-06 11:19 18.23562 42.65943 6884 ft 3 kts 321°
2026-05-06 11:19 18.23542 42.65961 6884 ft 4 kts 316°
2026-05-06 11:20 18.23530 42.65972 6884 ft 0 kts 321°
2026-05-06 11:22 18.23532 42.65971 6884 ft 2 kts 320°
2026-05-06 11:22 18.23549 42.65955 6884 ft 5 kts 317°
2026-05-06 11:23 18.23571 42.65932 6884 ft 6 kts 313°
2026-05-06 11:23 18.23603 42.65891 6884 ft 9 kts 306°
2026-05-06 11:23 18.23643 42.65829 6884 ft 12 kts 306°
2026-05-06 11:23 18.23702 42.65752 6883 ft 15 kts 308°
2026-05-06 11:24 18.23778 42.65654 6883 ft 19 kts 308°
2026-05-06 11:24 18.23871 42.65535 6883 ft 23 kts 309°
2026-05-06 11:24 18.23981 42.65395 6883 ft 26 kts 308°
2026-05-06 11:24 18.24057 42.65290 6883 ft 28 kts 309°
2026-05-06 11:25 18.24168 42.65150 6883 ft 25 kts 308°
2026-05-06 11:25 18.24282 42.65000 6883 ft 26 kts 314°
2026-05-06 11:25 18.24408 42.64845 6884 ft 29 kts 309°
2026-05-06 11:25 18.24541 42.64671 6883 ft 31 kts 309°
2026-05-06 11:26 18.24675 42.64488 6883 ft 32 kts 307°
2026-05-06 11:26 18.24829 42.64383 6883 ft 25 kts 354°
2026-05-06 11:26 18.24921 42.64377 6882 ft 0 kts
2026-05-06 11:27 18.24948 42.64390 6882 ft 11 kts 37°
2026-05-06 11:27 18.24957 42.64478 6882 ft 15 kts 130°
2026-05-06 11:27 18.24825 42.64648 6882 ft 57 kts 130°
2026-05-06 11:27 18.24426 42.65155 6883 ft 123 kts 130°
2026-05-06 11:28 18.23767 42.65998 6942 ft 169 kts 129°
2026-05-06 11:28 18.22996 42.66987 7443 ft 185 kts 133°
2026-05-06 11:28 18.22018 42.68081 7728 ft 218 kts 141°
2026-05-06 11:28 18.20698 42.68904 8142 ft 227 kts 166°
2026-05-06 11:29 18.19143 42.68784 8518 ft 230 kts 210°
2026-05-06 11:29 18.18154 42.67536 8872 ft 228 kts 257°
2026-05-06 11:29 18.18343 42.65898 9169 ft 237 kts 294°
2026-05-06 11:29 18.19148 42.64324 9366 ft 246 kts 299°
2026-05-06 11:30 18.20033 42.62766 9897 ft 250 kts 300°
2026-05-06 11:30 18.21004 42.61219 10430 ft 257 kts 304°
2026-05-06 11:30 18.22043 42.59659 10969 ft 264 kts 305°
2026-05-06 11:30 18.23177 42.58097 11479 ft 273 kts 310°
2026-05-06 11:31 18.24317 42.56445 11937 ft 286 kts 299°
2026-05-06 11:31 18.25242 42.54572 12388 ft 298 kts 296°
2026-05-06 11:31 18.26176 42.52579 12849 ft 310 kts 296°
2026-05-06 11:31 18.27243 42.50519 13316 ft 323 kts 302°
2026-05-06 11:32 18.28568 42.48584 13566 ft 341 kts 308°
2026-05-06 11:32 18.30101 42.46578 13699 ft 362 kts 309°
2026-05-06 11:32 18.31743 42.44488 13949 ft 377 kts 310°
2026-05-06 11:32 18.33443 42.42350 14449 ft 384 kts 310°
2026-05-06 11:33 18.35187 42.40210 15017 ft 386 kts 311°
2026-05-06 11:33 18.37057 42.38146 15592 ft 391 kts 313°
2026-05-06 11:33 18.38844 42.35982 16207 ft 394 kts 309°
2026-05-06 11:33 18.40543 42.33717 16756 ft 396 kts 307°
2026-05-06 11:34 18.42225 42.31406 17308 ft 399 kts 307°
2026-05-06 11:34 18.43932 42.29081 17849 ft 403 kts 307°
2026-05-06 11:34 18.45677 42.26759 18401 ft 406 kts 308°
2026-05-06 11:34 18.47459 42.24442 18942 ft 408 kts 308°
2026-05-06 11:35 18.49264 42.22126 19460 ft 409 kts 309°
2026-05-06 11:35 18.51089 42.19804 19954 ft 413 kts 309°
2026-05-06 11:35 18.52930 42.17452 20498 ft 418 kts 308°
2026-05-06 11:35 18.54773 42.15096 20999 ft 418 kts 308°
2026-05-06 11:36 18.56630 42.12728 21468 ft 420 kts 308°
2026-05-06 11:36 18.58474 42.10376 21920 ft 423 kts 308°
2026-05-06 11:36 18.60351 42.07984 22362 ft 425 kts 308°
2026-05-06 11:36 18.62238 42.05571 22797 ft 426 kts 308°
2026-05-06 11:37 18.64125 42.03153 23216 ft 429 kts 308°
2026-05-06 11:37 18.66024 42.00715 23613 ft 431 kts 308°
2026-05-06 11:37 18.67931 41.98263 24000 ft 433 kts 308°
2026-05-06 11:37 18.69842 41.95806 24167 ft 436 kts 307°
2026-05-06 11:38 18.71779 41.93312 24200 ft 444 kts 307°
2026-05-06 11:38 18.73745 41.90790 24185 ft 446 kts 308°
2026-05-06 11:38 18.75715 41.88258 24184 ft 447 kts 307°
2026-05-06 11:38 18.77685 41.85717 24183 ft 448 kts 307°
2026-05-06 11:39 18.79655 41.83172 24172 ft 447 kts 307°
2026-05-06 11:39 18.81627 41.80629 24172 ft 447 kts 307°
2026-05-06 11:39 18.83600 41.78088 24162 ft 447 kts 307°
2026-05-06 11:39 18.85571 41.75545 24165 ft 447 kts 307°
2026-05-06 11:40 18.87543 41.73003 24160 ft 447 kts 307°
2026-05-06 11:40 18.89514 41.70463 24156 ft 447 kts 307°
2026-05-06 11:40 18.91484 41.67925 24149 ft 446 kts 307°
2026-05-06 11:40 18.93420 41.65425 24140 ft 446 kts 307°
2026-05-06 11:41 18.95381 41.62887 24137 ft 446 kts 307°
2026-05-06 11:41 18.97341 41.60346 24136 ft 446 kts 307°
2026-05-06 11:41 18.99300 41.57808 24148 ft 445 kts 307°
2026-05-06 11:41 19.01264 41.55269 24183 ft 447 kts 307°
2026-05-06 11:42 19.03234 41.52726 24192 ft 447 kts 307°
2026-05-06 11:42 19.05205 41.50178 24196 ft 447 kts 307°
2026-05-06 11:42 19.07172 41.47636 24198 ft 447 kts 307°
2026-05-06 11:42 19.09144 41.45086 24198 ft 447 kts 307°
2026-05-06 11:43 19.11104 41.42545 24195 ft 446 kts 307°
2026-05-06 11:43 19.13068 41.39997 24190 ft 446 kts 307°
2026-05-06 11:43 19.15000 41.37490 24183 ft 445 kts 307°
2026-05-06 11:44 19.17875 41.33756 24179 ft 445 kts 307°
2026-05-06 11:44 19.18895 41.32431 24180 ft 449 kts 307°
2026-05-06 11:44 19.20879 41.29850 24195 ft 451 kts 307°
2026-05-06 11:44 19.22851 41.27283 24177 ft 447 kts 307°
2026-05-06 11:45 19.24808 41.24735 24172 ft 446 kts 306°
2026-05-06 11:45 19.26727 41.22161 24172 ft 445 kts 305°
2026-05-06 11:45 19.28596 41.19546 24174 ft 445 kts 304°
2026-05-06 11:45 19.30430 41.16913 24176 ft 444 kts 303°
2026-05-06 11:46 19.32249 41.14273 24172 ft 444 kts 303°
2026-05-06 11:46 19.34074 41.11635 24171 ft 444 kts 304°
2026-05-06 11:46 19.35907 41.09005 24163 ft 444 kts 304°
2026-05-06 11:46 19.37761 41.06361 24163 ft 445 kts 304°
2026-05-06 11:47 19.39597 41.03720 24161 ft 445 kts 303°
2026-05-06 11:47 19.41418 41.01078 24158 ft 444 kts 303°
2026-05-06 11:47 19.43232 40.98432 24155 ft 443 kts 303°
2026-05-06 11:47 19.45044 40.95782 24152 ft 443 kts 303°
2026-05-06 11:48 19.46827 40.93173 24148 ft 443 kts 303°
2026-05-06 11:48 19.48663 40.90493 24147 ft 443 kts 303°
2026-05-06 11:48 19.50456 40.87886 24146 ft 443 kts 303°
2026-05-06 11:48 19.52269 40.85246 24145 ft 443 kts 303°
2026-05-06 11:49 19.54081 40.82603 24146 ft 443 kts 303°
2026-05-06 11:49 19.55890 40.79962 24144 ft 443 kts 303°
2026-05-06 11:49 19.57700 40.77322 24145 ft 442 kts 303°
2026-05-06 11:49 19.59508 40.74677 24140 ft 442 kts 303°
2026-05-06 11:50 19.61314 40.72034 24136 ft 442 kts 303°
2026-05-06 11:50 19.63113 40.69399 24137 ft 440 kts 303°
2026-05-06 11:50 19.64910 40.66769 24132 ft 441 kts 303°
2026-05-06 11:50 19.66718 40.64130 24131 ft 442 kts 303°
2026-05-06 11:51 19.68524 40.61494 24130 ft 442 kts 303°
2026-05-06 11:51 19.70332 40.58852 24128 ft 442 kts 303°
2026-05-06 11:51 19.72137 40.56207 24131 ft 442 kts 303°
2026-05-06 11:51 19.73941 40.53563 24132 ft 442 kts 303°
2026-05-06 11:52 19.75748 40.50912 24130 ft 443 kts 303°
2026-05-06 11:52 19.77527 40.48302 24121 ft 443 kts 302°
2026-05-06 11:52 19.79334 40.45648 24114 ft 443 kts 302°
2026-05-06 11:52 19.81139 40.42997 24107 ft 443 kts 302°
2026-05-06 11:53 19.82945 40.40344 24102 ft 443 kts 302°
2026-05-06 11:53 19.84746 40.37698 24097 ft 443 kts 302°
2026-05-06 11:53 19.86553 40.35041 24095 ft 443 kts 302°
2026-05-06 11:53 19.88354 40.32388 24101 ft 443 kts 302°
2026-05-06 11:54 19.90153 40.29737 24086 ft 441 kts 302°
2026-05-06 11:54 19.91952 40.27090 24068 ft 442 kts 302°
2026-05-06 11:54 19.93756 40.24437 24063 ft 442 kts 302°
2026-05-06 11:54 19.95557 40.21789 24064 ft 442 kts 302°
2026-05-06 11:55 19.97356 40.19138 24063 ft 442 kts 302°
2026-05-06 11:55 19.99155 40.16483 24061 ft 442 kts 302°
2026-05-06 11:55 20.00953 40.13829 24057 ft 442 kts 302°
2026-05-06 11:55 20.02753 40.11175 24045 ft 442 kts 302°
2026-05-06 11:56 20.04530 40.08555 24035 ft 444 kts 302°
2026-05-06 11:56 20.06352 40.05853 24028 ft 452 kts 302°
2026-05-06 11:56 20.08169 40.03159 24026 ft 446 kts 302°
2026-05-06 11:56 20.09973 40.00489 24026 ft 444 kts 302°
2026-05-06 11:57 20.11777 39.97822 24025 ft 444 kts 302°
2026-05-06 11:57 20.13581 39.95157 24015 ft 443 kts 302°
2026-05-06 11:57 20.15381 39.92496 24016 ft 443 kts 302°
2026-05-06 11:57 20.17184 39.89830 24021 ft 443 kts 302°
2026-05-06 11:58 20.18990 39.87159 24016 ft 443 kts 302°
2026-05-06 11:58 20.20788 39.84490 24017 ft 443 kts 302°
2026-05-06 11:58 20.22582 39.81821 24017 ft 443 kts 302°
2026-05-06 11:58 20.24435 39.79205 23874 ft 442 kts 307°
2026-05-06 11:59 20.26624 39.76915 23625 ft 443 kts 317°
2026-05-06 11:59 20.29160 39.75043 23374 ft 445 kts 327°
2026-05-06 11:59 20.31960 39.73627 23124 ft 447 kts 334°
2026-05-06 11:59 20.34843 39.72376 22874 ft 446 kts 334°
2026-05-06 12:00 20.37672 39.71146 22627 ft 444 kts 334°
2026-05-06 12:00 20.40532 39.69900 22374 ft 442 kts 334°
2026-05-06 12:00 20.43378 39.68656 22131 ft 441 kts 334°
2026-05-06 12:00 20.46210 39.67418 21899 ft 439 kts 334°
2026-05-06 12:01 20.49035 39.66186 21648 ft 438 kts 334°
2026-05-06 12:01 20.51844 39.64955 21398 ft 436 kts 334°
2026-05-06 12:01 20.54645 39.63723 21138 ft 434 kts 334°
2026-05-06 12:01 20.57432 39.62500 20873 ft 431 kts 334°
2026-05-06 12:02 20.60186 39.61295 20322 ft 426 kts 334°
2026-05-06 12:02 20.62914 39.60100 19736 ft 422 kts 334°
2026-05-06 12:02 20.65618 39.58916 19201 ft 417 kts 334°
2026-05-06 12:02 20.68288 39.57749 18671 ft 413 kts 334°
2026-05-06 12:03 20.70935 39.56592 18152 ft 409 kts 334°
2026-05-06 12:03 20.73557 39.55442 17635 ft 405 kts 335°
2026-05-06 12:03 20.76149 39.54302 17127 ft 402 kts 335°
2026-05-06 12:03 20.78728 39.53169 16607 ft 399 kts 335°
2026-05-06 12:04 20.81301 39.52082 16094 ft 397 kts 336°
2026-05-06 12:04 20.83877 39.51042 15566 ft 395 kts 338°
2026-05-06 12:04 20.86418 39.50043 15050 ft 393 kts 338°
2026-05-06 12:04 20.88995 39.49040 14444 ft 393 kts 338°
2026-05-06 12:05 20.91536 39.48052 14074 ft 386 kts 338°
2026-05-06 12:05 20.94054 39.47063 13517 ft 385 kts 338°
2026-05-06 12:05 20.96564 39.46065 12946 ft 384 kts 338°
2026-05-06 12:05 20.99065 39.45063 12363 ft 383 kts 338°
2026-05-06 12:06 21.01562 39.44061 11772 ft 382 kts 338°
2026-05-06 12:06 21.04044 39.43066 11175 ft 380 kts 339°
2026-05-06 12:06 21.06501 39.42079 10827 ft 371 kts 339°
2026-05-06 12:06 21.08841 39.41140 10695 ft 347 kts 339°
2026-05-06 12:07 21.11055 39.40252 10563 ft 332 kts 339°
2026-05-06 12:07 21.13163 39.39406 10253 ft 316 kts 339°
2026-05-06 12:07 21.15191 39.38595 9896 ft 307 kts 339°
2026-05-06 12:07 21.17196 39.37792 9771 ft 308 kts 339°
2026-05-06 12:08 21.19199 39.36989 9650 ft 308 kts 339°
2026-05-06 12:08 21.21199 39.36185 9428 ft 308 kts 339°
2026-05-06 12:08 21.23213 39.35375 8981 ft 306 kts 340°
2026-05-06 12:08 21.25197 39.34578 8310 ft 304 kts 340°
2026-05-06 12:09 21.27158 39.33793 7763 ft 297 kts 340°
2026-05-06 12:09 21.29054 39.33034 7538 ft 286 kts 340°
2026-05-06 12:09 21.30902 39.32294 7242 ft 282 kts 340°
2026-05-06 12:09 21.32709 39.31569 6800 ft 282 kts 340°
2026-05-06 12:10 21.34579 39.30819 6028 ft 289 kts 340°
2026-05-06 12:10 21.36462 39.30064 5260 ft 289 kts 340°
2026-05-06 12:10 21.37731 39.29554 4753 ft 289 kts 340°
2026-05-06 12:10 21.40035 39.28628 4053 ft 279 kts 340°
2026-05-06 12:11 21.41768 39.27930 3972 ft 254 kts 340°
2026-05-06 12:11 21.43358 39.27250 3913 ft 241 kts 339°
2026-05-06 12:11 21.44906 39.26610 3823 ft 233 kts 340°
2026-05-06 12:11 21.46408 39.26017 3724 ft 228 kts 340°
2026-05-06 12:12 21.47887 39.25437 3620 ft 222 kts 340°
2026-05-06 12:12 21.49302 39.24881 3543 ft 212 kts 340°
2026-05-06 12:12 21.50662 39.24346 3363 ft 205 kts 340°
2026-05-06 12:12 21.51995 39.23822 3098 ft 202 kts 340°
2026-05-06 12:13 21.53296 39.23310 2831 ft 196 kts 340°
2026-05-06 12:13 21.54561 39.22813 2576 ft 191 kts 340°
2026-05-06 12:13 21.55790 39.22329 2338 ft 184 kts 339°
2026-05-06 12:13 21.56980 39.21861 2088 ft 178 kts 337°
2026-05-06 12:14 21.58100 39.21421 1867 ft 169 kts 339°
2026-05-06 12:14 21.58836 39.21131 1708 ft 165 kts 341°
2026-05-06 12:14 21.59900 39.20711 1492 ft 161 kts 343°
2026-05-06 12:14 21.61279 39.20168 1214 ft 158 kts 346°
2026-05-06 12:15 21.62265 39.19779 1020 ft 143 kts 341°
2026-05-06 12:15 21.62876 39.19538 883 ft 135 kts 341°
2026-05-06 12:15 21.63742 39.19197 706 ft 131 kts 341°
2026-05-06 12:15 21.64594 39.18862 535 ft 130 kts 341°
2026-05-06 12:16 21.65448 39.18526 363 ft 131 kts 342°
2026-05-06 12:16 21.66305 39.18193 182 ft 132 kts 340°
2026-05-06 12:16 21.67138 39.17855 58 ft 121 kts 340°
2026-05-06 12:16 21.67785 39.17603 53 ft 74 kts 339°
2026-05-06 12:17 21.68187 39.17446 49 ft 55 kts 340°
2026-05-06 12:17 21.68521 39.17314 46 ft 48 kts 339°
2026-05-06 12:17 21.68792 39.17200 44 ft 29 kts 324°
2026-05-06 12:17 21.68882 39.17081 45 ft 9 kts 305°
2026-05-06 12:18 21.68896 39.17060 45 ft 2 kts 304°
2026-05-06 12:18 21.68913 39.17032 45 ft 7 kts 304°
2026-05-06 12:18 21.68928 39.17006 45 ft 1 kts 298°
2026-05-06 12:18 21.68934 39.16990 45 ft 4 kts 286°
2026-05-06 12:19 21.68936 39.16967 45 ft 2 kts 272°
2026-05-06 12:19 21.68932 39.16944 45 ft 4 kts 246°
2026-05-06 12:19 21.68926 39.16932 45 ft 1 kts 242°
2026-05-06 12:19 21.68926 39.16925 45 ft 2 kts 265°
2026-05-06 12:20 21.68938 39.16910 44 ft 3 kts 335°
2026-05-06 12:20 21.68983 39.16894 43 ft 11 kts 341°
2026-05-06 12:20 21.69081 39.16858 42 ft 19 kts 341°
2026-05-06 12:20 21.69215 39.16805 43 ft 18 kts 338°
2026-05-06 12:21 21.69227 39.16673 42 ft 24 kts 249°
2026-05-06 12:21 21.69162 39.16484 41 ft 26 kts 250°
2026-05-06 12:21 21.69116 39.16331 39 ft 14 kts 264°
2026-05-06 12:21 21.69144 39.16271 37 ft 10 kts 328°
2026-05-06 12:22 21.69177 39.16200 36 ft 13 kts 259°
2026-05-06 12:22 21.69142 39.16099 34 ft 16 kts 250°
2026-05-06 12:22 21.69101 39.15979 33 ft 18 kts 250°
2026-05-06 12:22 21.69062 39.15867 32 ft 15 kts 249°
2026-05-06 12:23 21.69028 39.15765 32 ft 15 kts 249°
2026-05-06 12:23 21.68995 39.15690 31 ft 8 kts 232°
2026-05-06 12:23 21.68942 39.15683 31 ft 9 kts 163°
2026-05-06 12:23 21.68877 39.15704 30 ft 11 kts 163°
2026-05-06 12:24 21.68801 39.15734 31 ft 13 kts 159°
2026-05-06 12:24 21.68713 39.15768 31 ft 14 kts 160°
2026-05-06 12:24 21.68615 39.15807 31 ft 16 kts 159°
2026-05-06 12:24 21.68506 39.15850 31 ft 17 kts 160°
2026-05-06 12:25 21.68391 39.15894 32 ft 17 kts 159°
2026-05-06 12:25 21.68274 39.15940 33 ft 19 kts 159°
2026-05-06 12:25 21.68151 39.15990 33 ft 20 kts 159°
2026-05-06 12:25 21.68016 39.16043 33 ft 20 kts 161°
2026-05-06 12:26 21.67886 39.16097 32 ft 19 kts 156°
2026-05-06 12:26 21.67760 39.16147 34 ft 18 kts 161°
2026-05-06 12:26 21.67641 39.16190 33 ft 17 kts 160°
2026-05-06 12:26 21.67524 39.16237 33 ft 19 kts 156°
2026-05-06 12:27 21.67397 39.16287 35 ft 20 kts 160°
2026-05-06 12:27 21.67262 39.16339 35 ft 21 kts 159°
2026-05-06 12:27 21.67117 39.16397 35 ft 23 kts 159°
2026-05-06 12:27 21.66959 39.16458 37 ft 25 kts 161°
2026-05-06 12:28 21.66797 39.16524 37 ft 25 kts 159°
2026-05-06 12:28 21.66655 39.16582 37 ft 14 kts 156°
2026-05-06 12:28 21.66634 39.16630 37 ft 7 kts 79°
2026-05-06 12:28 21.66651 39.16683 38 ft 8 kts 69°
2026-05-06 12:29 21.66673 39.16744 36 ft 9 kts 69°
2026-05-06 12:29 21.66697 39.16811 40 ft 9 kts 68°
2026-05-06 12:29 21.66714 39.16877 41 ft 9 kts 86°
2026-05-06 12:29 21.66695 39.16928 40 ft 5 kts 133°
2026-05-06 12:30 21.66661 39.16946 40 ft 6 kts 161°
2026-05-06 12:30 21.66614 39.16966 42 ft 8 kts 150°
2026-05-06 12:30 21.66593 39.17012 43 ft 6 kts 62°
2026-05-06 12:30 21.66613 39.17049 40 ft 4 kts 64°
2026-05-06 12:31 21.66618 39.17061 44 ft 0 kts 64°
2026-05-06 12:31 21.66619 39.17062 44 ft 0 kts 64°
2026-05-06 12:38 21.66626 39.17064 44 ft 0 kts 95°
2026-05-06 12:59 21.66626 39.17063 44 ft 0 kts 95°